Location: Newark
(34.1333°N, 7.9667°W)
Time: 10:46:59
(UTC+00:00)

Vanguard 1 - All Passes

Search period start: 15 June 2021 00:00
Search period end: 25 June 2021 00:00
Orbit: 650 x 3832 km, 34.2° (Epoch: 14 June)

Date Brightness Start Highest point End Pass type
(mag) Time Alt. Az. Time Alt. Az. Time Alt. Az.
15 Jun - 00:50:02 10° W 01:09:05 90° SSE 01:19:04 10° E visible
15 Jun - 03:18:36 10° W 03:31:46 75° SSW 03:38:40 10° ESE visible
15 Jun - 05:45:24 10° W 05:51:29 23° SW 05:55:48 10° S daylight
15 Jun - 18:05:00 10° SSE 18:15:32 15° SE 18:25:47 10° ESE daylight
15 Jun - 20:19:06 10° SSW 20:40:18 44° SE 20:56:53 10° E visible
15 Jun - 22:43:14 10° WSW 23:05:50 75° SSE 23:19:26 10° E visible
16 Jun - 01:11:59 10° W 01:30:26 89° N 01:40:01 10° E visible
16 Jun - 03:40:18 10° WNW 03:52:41 63° SSW 03:59:19 10° SE visible
16 Jun - 06:08:04 10° WSW 06:11:47 14° SW 06:14:48 10° SSW daylight
16 Jun - 18:21:33 10° S 18:36:34 22° SE 18:50:54 10° E daylight
16 Jun - 20:39:17 10° SW 21:01:34 53° SSE 21:18:25 10° ENE visible
16 Jun - 23:04:47 10° WSW 23:27:17 82° SSE 23:40:29 10° E visible
17 Jun - 01:33:56 10° W 01:51:45 89° S 02:00:57 10° E visible
17 Jun - 04:02:01 10° WNW 04:13:26 50° SSW 04:19:49 10° SE visible
17 Jun - 18:39:50 10° S 18:57:33 29° SE 19:14:11 10° E daylight
17 Jun - 20:59:52 10° SW 21:22:54 61° SSE 21:39:45 10° ENE visible
17 Jun - 23:26:32 10° WSW 23:48:45 87° S 00:01:31 10° E visible
18 Jun - 01:55:51 10° W 02:13:00 84° SSW 02:21:49 10° ESE visible
18 Jun - 04:23:48 10° W 04:34:01 38° SW 04:40:03 10° SSE visible
18 Jun - 18:59:00 10° SSW 19:18:34 37° SE 19:36:37 10° E daylight
18 Jun - 21:20:48 10° SW 21:44:18 70° SSE 22:00:59 10° ENE visible
18 Jun - 23:48:26 10° W 00:10:16 90° N 00:22:33 10° E visible
19 Jun - 02:17:43 10° W 02:34:08 76° SSW 02:42:37 10° ESE visible
19 Jun - 04:45:51 10° W 04:54:24 27° SW 04:59:56 10° SSE visible
19 Jun - 17:05:12 10° SSE 17:15:30 15° SE 17:26:13 10° E daylight
19 Jun - 19:18:45 10° SSW 19:39:38 46° SE 19:58:32 10° ENE daylight
19 Jun - 21:42:01 10° WSW 22:05:47 77° SSE 22:22:10 10° ENE visible
20 Jun - 00:10:24 10° W 00:31:46 89° N 00:43:33 10° E visible
20 Jun - 02:39:32 10° WNW 02:55:07 66° SSW 03:03:17 10° SE visible
20 Jun - 05:08:25 10° W 05:14:39 18° SW 05:19:12 10° S daylight
20 Jun - 17:21:56 10° S 17:36:15 22° SE 17:51:24 10° E daylight
20 Jun - 19:38:56 10° SW 20:00:48 55° SSE 20:20:10 10° ENE visible
20 Jun - 22:03:30 10° WSW 22:27:21 83° SSE 22:43:18 10° E visible
21 Jun - 00:32:23 10° W 00:53:13 89° S 01:04:33 10° E visible
21 Jun - 03:01:22 10° WNW 03:15:55 54° SSW 03:23:47 10° SE visible
21 Jun - 05:33:00 10° WSW 05:34:48 11° SW 05:36:27 10° SW daylight
21 Jun - 17:40:18 10° S 17:57:00 30° SE 18:14:47 10° E daylight
21 Jun - 19:59:29 10° SW 20:22:07 63° SSE 20:41:37 10° ENE visible
21 Jun - 22:25:11 10° WSW 22:48:59 88° S 23:04:26 10° E visible
22 Jun - 00:54:21 10° W 01:14:36 84° SSW 01:25:29 10° ESE visible
22 Jun - 03:23:17 10° WNW 03:36:31 42° SW 03:44:02 10° SSE visible
22 Jun - 17:59:31 10° SSW 18:17:48 38° SE 18:37:19 10° E daylight
22 Jun - 20:20:21 10° SW 20:43:32 72° SSE 21:02:58 10° ENE visible
22 Jun - 22:47:00 10° W 23:10:39 90° N 23:25:34 10° E visible
23 Jun - 01:16:16 10° WNW 01:35:51 77° SSW 01:46:19 10° ESE visible
23 Jun - 03:45:24 10° W 03:56:56 31° SW 04:03:58 10° SSE visible
23 Jun - 16:06:34 10° SSE 16:15:31 15° SE 16:25:26 10° E daylight
23 Jun - 18:19:17 10° SSW 18:38:43 47° SE 18:59:22 10° ENE daylight
23 Jun - 20:41:30 10° WSW 21:05:04 79° SSE 21:24:15 10° ENE visible
23 Jun - 23:08:55 10° W 23:32:19 89° N 23:46:42 10° E visible
24 Jun - 01:38:10 10° WNW 01:56:55 68° SSW 02:07:00 10° SE visible
24 Jun - 04:07:59 10° W 04:17:10 22° SW 04:23:22 10° S visible
24 Jun - 16:23:15 10° S 16:36:02 22° SE 16:50:55 10° E daylight
24 Jun - 18:39:27 10° SW 18:59:46 56° SE 19:21:07 10° ENE daylight
24 Jun - 21:02:52 10° WSW 21:26:44 84° SSE 21:45:31 10° E visible
